Letecké školy

Flying Academy USA

Flying Academy USA

Miami, FL & Los Angeles, CA

Flying Academy ČR

Flying Academy ČR

Praha & Brno, Česká Republika

Letecká škola Flying Academy

Letecká škola Flying Academy má více než 12 let zkušeností s výcvikem profesionálních pilotů v Evropě a přes 30 let v USA. Jsme jednou z nejdynamičtěji rostoucích leteckých škol poskytujících vysoký standard leteckého výcviku v prostředí simulujícím atmosféru v aeroliniích.

  • Flying Academy je EASA certifikovaná výcviková organizace (CZ/ATO-014) a FAA certifikovaná letecká škola podle Part 141 & 61, působíme v České Republice a v USA
  • Naši instruktoři jsou současně i piloty aerolinií – získáte reálné zkušenosti pilota
  • Dostanete zdarma iPad mini při zahájení ab-initio výcvikového programu
  • Naše výcvikové kurzy jsou navrženy pro budoucí EASA a FAA soukromé a komerční piloty

Vítejte ve světě, kde práce je náš koníček! Každý v našem týmu ve Flying Academy se těší z úspěchů našich studentů. Diky skvělému zázemí, přístupu a nabídce naší letecké školy se ujistíte, že jste na správném místě k dosažení Vašich snů ve Flying Academy.

Proč si vybrat Flying Academy - přečtěte si více >>

 

Novinky

Otevíráme již brzy nový kurz ATPL a IR teorie v Praze. Neváhejte a zapište se do podzimního kurzu nyní !

Flying Academy otevírá kurz zaměřený na teorii ATPL. Je vhodný I pro zájemce, kteří si chtějí svou PPL licenci rozšířit o přístrojovou doložku(IR). Tyhle předměty se budeme snažit plánovat mezi prvními, protože to IR zájemcům zkrátí čas výcviku. Představte si podzimní mlhy, sněhové vánice a krátký sluneční svit. Není ideálnější čas na zahájení teoretických kurzů, než nyní? Přibližně 1-2 víkendy v měsíci, v prostorách našich vyhřátých a moderně vybavených učebnách v Praze, se na Vás budou těšit naši lektoři a zaměstnanci.

celý článek >>

Flying Academy Vás srdečně zve na Dny otevřených dveří!

Vybrat si správnou výcvikovou organizaci je velmi zásadním krokem v životě každého pilota, proto neváhejte a přijďte se na vlastní oči podívat, jak probíhá výcvik v jedné z nejlepších mezinárodních organizací ve Flying Academy!


Ve dnech 21. a 22. dubna 2017 budete mít možnost navštívit naše pobočky v Brně a v Praze, získat informace o teoretické a praktické přípravě, setkat se s našimi instruktory, prohlédnout si výcvikové letouny a nebo rovnou zkusit vstupní let.

Ať už jste Vy nebo Vaši blízcí příznivci létání a sníte o vlastním pilotním průkazu, budete mít navíc skvělou možnost získat speciální slevové vouchery na teoretickou přípravu PPL a ATPL! 

 

celý článek >>

Flying Academy pořádá udržovací seminář FI, IRI v Brně

Letecká škola Flying Academy pořádá udržovací seminář letového instruktora (FI) a instruktora přístrojové kvalifikace (IRI) nutný pro prodloužení těchto kvalifikací. Seminář je dvoudenní a bude se konat 25. a 26. února od 9 do 16 hodin v prostorách letecké školy v Brně - Tuřanech. Poplatek za seminář činí 4000 Kč plus DPH.

 

Obsah udržovacího semináře FI a IRI

V Udržovacím semináři budou probírány: Stávající a nové předpisy, výuka a sebevzdělávání, techniky výuky, role instruktora, bezpečnost v letectví, prevence incidentů a nehod, letecké umění, právní aspekty a postupy vymáhání, dovednost v navigaci, výuka létání podle přístrojů. Podrobnější program bude stanoven před zahájením kurzu.

Po ukončení semináře vám bude kurz zapsán do logbooku. Seminář je v souladu s předpisem AMC 1 FCL.940.FI(a)(2)FI a mohou se ho účastnit i instruktoři z jiných leteckých škol.

 

celý článek >>

více článků

Blog

Zahraniční letecká zkušenost, kterou získáte jen s Flying Academy v Miami

Díky otevření nové pobočky Flying Academy v Miami ve Spojených státech dostalo mnoho studentů, kteří dosud znali jen evropský vzdušný prostor, příležitost vyzkoušet si výcvik dle předpisů FAA v americkém vzdušném prostoru. Díky výhodným balíčkům Time Buildingu, které Flying Academy nabízí, se pilotům s evropskou licencí veškerý nálet v Americe započítá po jejich návratu do České republiky.

Student Abdollah Mohammadpour, který se zúčastnil výcviku 0-ATPL, vysvětluje, jak tato zkušenost změnila celý jeho pohled na letecký výcvik: "Jako student, pilot se zkušenostmi pouze v neřízeném vzdušném prostoru s malým provozem, jsem se rozhodl využít příležitosti od Flying Academy a rozšířit své znalosti v USA. Po příletu do Miami na mě čekal řidič od Flying Academy, který mě odvezl do vily. Vila se nacházela jen pár minut jízdy od letiště a měla na zahradě i velký bazén. Personál Flying Academy mi se vším pomáhal stejně jako v Praze."

pokračovat ve čtení >>

více článků

0 - 500 hodin

Flying Academy s.r.o.
Beranových 130
Praha 9 - Letnany
199 00

800 884 888

+420 228 882 444

www.flyingacademy.cz
pilot@FlyingAcademy.cz

facebook.com/FlyingAcademy
twitter.com/FlyingAcademy
youtube.com/FlyingAcademy

Aktuální počasí

LKTB

LKTB 220800Z 21005KT 9999 SCT030 06/05 Q1013 NOSIG

LKPR

LKPR 220800Z 23014KT 9999 FEW025 07/04 Q1011 NOSIG

LKKV

LKKV 220800Z 24005KT 200V270 9999 SCT013 BKN017 05/03 Q1011

KTMB

KTMB 220806Z AUTO 31003KT 1 3/4SM BR CLR 18/18 A2991 RMK AO2 T01780178

Začněte program 0-1500 a získejte 1500 letových hodin s Flying Academy Získejte více informací